Location: Gwatt
(46.7204°N, 7.6223°E)
Time: 01:47:55
(UTC+00:00)

Transit 2A - Pass Details

Date: 30 January 2021
Orbit: 601 x 958 km, 66.7° (Epoch: 07 March)

Event Time Altitude Azimuth Distance (km) Brightness Sun altitude
Rises 02:25:51 0° 220° (SW) 3,472 - -45.7°
Reaches altitude 10° 02:28:27 10° 224° (SW) 2,487 - -45.3°
Maximum altitude 02:34:09 66° 306° (NW) 870 - -44.4°
Drops below altitude 10° 02:39:20 10° 29° (NNE) 2,259 - -43.6°
Exits shadow 02:39:59 - 30° (NNE) 2,509 9.1 -43.5°
Sets 02:41:36 0° 33° (NNE) 3,130 9.8 -43.2°
